![]() |
EMODnet Physics ERDDAP
Easier access to scientific data |
log in|
Brought to you by EMODnet Physics |
| Dataset Title: | NDBC - Collection of dew point temperature (DEWT) TimeSeries - IN SITU MultiPointTimeSeriesObservation
|
| Institution: | NDBC (Dataset ID: TS_DEWT_NDBC) |
| Information: | Summary
| License
| FGDC
| ISO 19115
| Metadata
| Background
| Subset
| Data Access Form
| Make a graph
|
| Name | Last modified | Size | Description | |
|---|---|---|---|---|
| Parent Directory | - | - | ||
| MNMM4_TS_DEWT_012007.nc | 27-Oct-2024 14:44 | 429698 | ||
| MNMM4_TS_DEWT_012008.nc | 27-Oct-2024 14:44 | 429692 | ||
| MNMM4_TS_DEWT_012009.nc | 27-Oct-2024 14:44 | 429689 | ||
| MNMM4_TS_DEWT_012010.nc | 27-Oct-2024 14:44 | 429694 | ||
| MNMM4_TS_DEWT_012011.nc | 27-Oct-2024 14:44 | 429698 | ||
| MNMM4_TS_DEWT_012012.nc | 27-Oct-2024 14:44 | 429910 | ||
| MNMM4_TS_DEWT_012013.nc | 27-Oct-2024 14:44 | 429910 | ||
| MNMM4_TS_DEWT_012014.nc | 27-Oct-2024 14:44 | 429912 | ||
| MNMM4_TS_DEWT_012015.nc | 27-Oct-2024 14:44 | 429692 | ||
| MNMM4_TS_DEWT_012016.nc | 27-Oct-2024 14:44 | 429864 | ||
| MNMM4_TS_DEWT_012017.nc | 27-Oct-2024 14:44 | 429912 | ||
| MNMM4_TS_DEWT_012018.nc | 27-Oct-2024 14:45 | 420796 | ||
| MNMM4_TS_DEWT_012019.nc | 27-Oct-2024 14:45 | 429448 | ||
| MNMM4_TS_DEWT_012020.nc | 27-Oct-2024 14:45 | 421793 | ||
| MNMM4_TS_DEWT_012021.nc | 27-Oct-2024 14:45 | 429882 | ||
| MNMM4_TS_DEWT_012022.nc | 27-Oct-2024 14:45 | 429915 | ||
| MNMM4_TS_DEWT_012023.nc | 27-Oct-2024 14:45 | 429911 | ||
| MNMM4_TS_DEWT_012025.nc | 07-Feb-2025 11:13 | 429912 | ||
| MNMM4_TS_DEWT_012026.nc | 02-Feb-2026 17:33 | 429913 | ||
| MNMM4_TS_DEWT_022007.nc | 27-Oct-2024 14:45 | 429912 | ||
| MNMM4_TS_DEWT_022008.nc | 27-Oct-2024 14:45 | 429896 | ||
| MNMM4_TS_DEWT_022009.nc | 27-Oct-2024 14:45 | 429912 | ||
| MNMM4_TS_DEWT_022010.nc | 27-Oct-2024 14:45 | 421745 | ||
| MNMM4_TS_DEWT_022011.nc | 27-Oct-2024 14:45 | 429909 | ||
| MNMM4_TS_DEWT_022012.nc | 27-Oct-2024 14:45 | 429889 | ||
| MNMM4_TS_DEWT_022013.nc | 27-Oct-2024 14:45 | 5421753 | ||
| MNMM4_TS_DEWT_022014.nc | 27-Oct-2024 14:45 | 429362 | ||
| MNMM4_TS_DEWT_022015.nc | 27-Oct-2024 14:46 | 429362 | ||
| MNMM4_TS_DEWT_022016.nc | 27-Oct-2024 14:46 | 429363 | ||
| MNMM4_TS_DEWT_022017.nc | 27-Oct-2024 14:46 | 429368 | ||
| MNMM4_TS_DEWT_022018.nc | 27-Oct-2024 14:46 | 429357 | ||
| MNMM4_TS_DEWT_022019.nc | 27-Oct-2024 14:46 | 429075 | ||
| MNMM4_TS_DEWT_022020.nc | 27-Oct-2024 14:46 | 429367 | ||
| MNMM4_TS_DEWT_022021.nc | 27-Oct-2024 14:46 | 429359 | ||
| MNMM4_TS_DEWT_022022.nc | 27-Oct-2024 14:46 | 426974 | ||
| MNMM4_TS_DEWT_022023.nc | 27-Oct-2024 14:46 | 422073 | ||
| MNMM4_TS_DEWT_022025.nc | 01-Mar-2025 06:09 | 429571 | ||
| MNMM4_TS_DEWT_022026.nc | 01-Mar-2026 06:40 | 429570 | ||
| MNMM4_TS_DEWT_032008.nc | 27-Oct-2024 14:46 | 429569 | ||
| MNMM4_TS_DEWT_032009.nc | 27-Oct-2024 14:46 | 429545 | ||
| MNMM4_TS_DEWT_032010.nc | 27-Oct-2024 14:46 | 429549 | ||
| MNMM4_TS_DEWT_032011.nc | 27-Oct-2024 14:46 | 429158 | ||
| MNMM4_TS_DEWT_032012.nc | 27-Oct-2024 14:46 | 429570 | ||
| MNMM4_TS_DEWT_032013.nc | 27-Oct-2024 14:47 | 429564 | ||
| MNMM4_TS_DEWT_032014.nc | 27-Oct-2024 14:47 | 429567 | ||
| MNMM4_TS_DEWT_032015.nc | 27-Oct-2024 14:47 | 429570 | ||
| MNMM4_TS_DEWT_032016.nc | 27-Oct-2024 14:47 | 429565 | ||
| MNMM4_TS_DEWT_032017.nc | 27-Oct-2024 14:47 | 429566 | ||
| MNMM4_TS_DEWT_032018.nc | 27-Oct-2024 14:47 | 429571 | ||
| MNMM4_TS_DEWT_032019.nc | 27-Oct-2024 14:47 | 429567 | ||
| MNMM4_TS_DEWT_032020.nc | 27-Oct-2024 14:47 | 429570 | ||
| MNMM4_TS_DEWT_032021.nc | 27-Oct-2024 14:47 | 429566 | ||
| MNMM4_TS_DEWT_032022.nc | 27-Oct-2024 14:47 | 429570 | ||
| MNMM4_TS_DEWT_032023.nc | 27-Oct-2024 14:47 | 4842303 | ||
| MNMM4_TS_DEWT_032025.nc | 02-Apr-2025 04:35 | 429696 | ||
| MNMM4_TS_DEWT_032026.nc | 21-Mar-2026 07:20 | 429686 | ||
| MNMM4_TS_DEWT_042007.nc | 27-Oct-2024 14:47 | 429687 | ||
| MNMM4_TS_DEWT_042008.nc | 27-Oct-2024 14:48 | 429691 | ||
| MNMM4_TS_DEWT_042009.nc | 27-Oct-2024 14:48 | 429697 | ||
| MNMM4_TS_DEWT_042010.nc | 27-Oct-2024 14:48 | 429687 | ||
| MNMM4_TS_DEWT_042011.nc | 27-Oct-2024 14:48 | 429698 | ||
| MNMM4_TS_DEWT_042012.nc | 27-Oct-2024 14:48 | 429407 | ||
| MNMM4_TS_DEWT_042013.nc | 27-Oct-2024 14:48 | 429691 | ||
| MNMM4_TS_DEWT_042014.nc | 27-Oct-2024 14:48 | 428262 | ||
| MNMM4_TS_DEWT_042015.nc | 27-Oct-2024 14:48 | 429915 | ||
| MNMM4_TS_DEWT_042016.nc | 27-Oct-2024 14:48 | 429907 | ||
| MNMM4_TS_DEWT_042017.nc | 27-Oct-2024 14:48 | 429912 | ||
| MNMM4_TS_DEWT_042018.nc | 27-Oct-2024 14:48 | 429912 | ||
| MNMM4_TS_DEWT_042019.nc | 27-Oct-2024 14:48 | 429911 | ||
| MNMM4_TS_DEWT_042021.nc | 27-Oct-2024 14:48 | 429422 | ||
| MNMM4_TS_DEWT_042022.nc | 27-Oct-2024 14:48 | 429908 | ||
| MNMM4_TS_DEWT_042023.nc | 27-Oct-2024 14:48 | 429777 | ||
| MNMM4_TS_DEWT_042025.nc | 01-May-2025 06:21 | 429914 | ||
| MNMM4_TS_DEWT_052007.nc | 27-Oct-2024 14:49 | 429906 | ||
| MNMM4_TS_DEWT_052008.nc | 27-Oct-2024 14:49 | 429916 | ||
| MNMM4_TS_DEWT_052009.nc | 27-Oct-2024 14:49 | 429921 | ||
| MNMM4_TS_DEWT_052010.nc | 27-Oct-2024 14:49 | 429907 | ||
| MNMM4_TS_DEWT_052011.nc | 27-Oct-2024 14:49 | 429909 | ||
| MNMM4_TS_DEWT_052012.nc | 27-Oct-2024 14:49 | 429864 | ||
| MNMM4_TS_DEWT_052013.nc | 27-Oct-2024 14:49 | 429914 | ||
| MNMM4_TS_DEWT_052014.nc | 27-Oct-2024 14:49 | 429884 | ||
| MNMM4_TS_DEWT_052015.nc | 27-Oct-2024 14:49 | 5469826 | ||
| MNMM4_TS_DEWT_052016.nc | 27-Oct-2024 14:49 | 429317 | ||
| MNMM4_TS_DEWT_052017.nc | 27-Oct-2024 14:49 | 429369 | ||
| MNMM4_TS_DEWT_052018.nc | 27-Oct-2024 14:49 | 429362 | ||
| MNMM4_TS_DEWT_052019.nc | 27-Oct-2024 14:49 | 429357 | ||
| MNMM4_TS_DEWT_052020.nc | 27-Oct-2024 14:50 | 429337 | ||
| MNMM4_TS_DEWT_052021.nc | 27-Oct-2024 14:50 | 429366 | ||
| MNMM4_TS_DEWT_052022.nc | 27-Oct-2024 14:50 | 429363 | ||
| MNMM4_TS_DEWT_052023.nc | 27-Oct-2024 14:50 | 429290 | ||
| MNMM4_TS_DEWT_052025.nc | 01-Jun-2025 08:41 | 429369 | ||
| MNMM4_TS_DEWT_062007.nc | 27-Oct-2024 14:50 | 429568 | ||
| MNMM4_TS_DEWT_062008.nc | 27-Oct-2024 14:50 | 429565 | ||
| MNMM4_TS_DEWT_062009.nc | 27-Oct-2024 14:50 | 429569 | ||
| MNMM4_TS_DEWT_062010.nc | 27-Oct-2024 14:50 | 429567 | ||
| MNMM4_TS_DEWT_062011.nc | 27-Oct-2024 14:50 | 429566 | ||
| MNMM4_TS_DEWT_062012.nc | 27-Oct-2024 14:50 | 428791 | ||
| MNMM4_TS_DEWT_062013.nc | 27-Oct-2024 14:50 | 429371 | ||
| MNMM4_TS_DEWT_062014.nc | 27-Oct-2024 14:50 | 429565 | ||
| MNMM4_TS_DEWT_062015.nc | 27-Oct-2024 14:50 | 429110 | ||
| MNMM4_TS_DEWT_062016.nc | 27-Oct-2024 14:50 | 429566 | ||
| MNMM4_TS_DEWT_062017.nc | 27-Oct-2024 14:50 | 429570 | ||
| MNMM4_TS_DEWT_062018.nc | 27-Oct-2024 14:51 | 429547 | ||
| MNMM4_TS_DEWT_062019.nc | 27-Oct-2024 14:51 | 429550 | ||
| MNMM4_TS_DEWT_062021.nc | 27-Oct-2024 14:51 | 429565 | ||
| MNMM4_TS_DEWT_062022.nc | 27-Oct-2024 14:51 | 429175 | ||
| MNMM4_TS_DEWT_062023.nc | 27-Oct-2024 14:51 | 429567 | ||
| MNMM4_TS_DEWT_062025.nc | 01-Jul-2025 06:00 | 429568 | ||
| MNMM4_TS_DEWT_072007.nc | 27-Oct-2024 14:51 | 5443948 | ||
| MNMM4_TS_DEWT_072008.nc | 27-Oct-2024 14:51 | 429693 | ||
| MNMM4_TS_DEWT_072009.nc | 27-Oct-2024 14:51 | 429685 | ||
| MNMM4_TS_DEWT_072010.nc | 27-Oct-2024 14:51 | 429694 | ||
| MNMM4_TS_DEWT_072011.nc | 27-Oct-2024 14:51 | 429697 | ||
| MNMM4_TS_DEWT_072012.nc | 27-Oct-2024 14:51 | 429686 | ||
| MNMM4_TS_DEWT_072013.nc | 27-Oct-2024 14:51 | 429692 | ||
| MNMM4_TS_DEWT_072014.nc | 27-Oct-2024 14:51 | 429693 | ||
| MNMM4_TS_DEWT_072015.nc | 27-Oct-2024 14:52 | 429693 | ||
| MNMM4_TS_DEWT_072016.nc | 27-Oct-2024 14:52 | 429687 | ||
| MNMM4_TS_DEWT_072017.nc | 27-Oct-2024 14:52 | 427832 | ||
| MNMM4_TS_DEWT_072018.nc | 27-Oct-2024 14:52 | 429909 | ||
| MNMM4_TS_DEWT_072019.nc | 27-Oct-2024 14:52 | 426530 | ||
| MNMM4_TS_DEWT_072020.nc | 27-Oct-2024 14:52 | 429910 | ||
| MNMM4_TS_DEWT_072021.nc | 27-Oct-2024 14:52 | 429911 | ||
| MNMM4_TS_DEWT_072022.nc | 27-Oct-2024 14:52 | 429912 | ||
| MNMM4_TS_DEWT_072023.nc | 27-Oct-2024 14:52 | 429603 | ||
| MNMM4_TS_DEWT_072025.nc | 01-Aug-2025 06:09 | 429911 | ||
| MNMM4_TS_DEWT_082007.nc | 27-Oct-2024 14:52 | 429250 | ||
| MNMM4_TS_DEWT_082008.nc | 27-Oct-2024 14:52 | 429909 | ||
| MNMM4_TS_DEWT_082009.nc | 27-Oct-2024 14:52 | 429909 | ||
| MNMM4_TS_DEWT_082010.nc | 27-Oct-2024 14:52 | 429913 | ||
| MNMM4_TS_DEWT_082011.nc | 27-Oct-2024 14:52 | 429906 | ||
| MNMM4_TS_DEWT_082012.nc | 27-Oct-2024 14:52 | 429652 | ||
| MNMM4_TS_DEWT_082013.nc | 27-Oct-2024 14:53 | 429913 | ||
| MNMM4_TS_DEWT_082014.nc | 27-Oct-2024 14:53 | 429907 | ||
| MNMM4_TS_DEWT_082015.nc | 27-Oct-2024 14:53 | 429912 | ||
| MNMM4_TS_DEWT_082016.nc | 27-Oct-2024 14:53 | 429910 | ||
| MNMM4_TS_DEWT_082017.nc | 27-Oct-2024 14:53 | 5660699 | ||
| MNMM4_TS_DEWT_082018.nc | 27-Oct-2024 14:53 | 1014281 | ||
| MNMM4_TS_DEWT_082019.nc | 27-Oct-2024 14:53 | 1109963 | ||
| MNMM4_TS_DEWT_082020.nc | 27-Oct-2024 14:53 | 677758 | ||
| MNMM4_TS_DEWT_082021.nc | 27-Oct-2024 14:53 | 1261718 | ||
| MNMM4_TS_DEWT_082022.nc | 27-Oct-2024 14:53 | 1261129 | ||
| MNMM4_TS_DEWT_082023.nc | 27-Oct-2024 14:53 | 1261060 | ||
| MNMM4_TS_DEWT_082025.nc | 01-Sep-2025 07:38 | 1263762 | ||
| MNMM4_TS_DEWT_092007.nc | 27-Oct-2024 14:53 | 1109158 | ||
| MNMM4_TS_DEWT_092008.nc | 27-Oct-2024 14:53 | 1109143 | ||
| MNMM4_TS_DEWT_092009.nc | 27-Oct-2024 14:53 | 1188021 | ||
| MNMM4_TS_DEWT_092010.nc | 27-Oct-2024 14:54 | 1202055 | ||
| MNMM4_TS_DEWT_092011.nc | 27-Oct-2024 14:54 | 449680 | ||
| MNMM4_TS_DEWT_092012.nc | 27-Oct-2024 14:54 | 450462 | ||
| MNMM4_TS_DEWT_092013.nc | 27-Oct-2024 14:54 | 450676 | ||
| MNMM4_TS_DEWT_092014.nc | 27-Oct-2024 14:54 | 450635 | ||
| MNMM4_TS_DEWT_092015.nc | 27-Oct-2024 14:54 | 451222 | ||
| MNMM4_TS_DEWT_092016.nc | 27-Oct-2024 14:54 | 450566 | ||
| MNMM4_TS_DEWT_092017.nc | 27-Oct-2024 14:54 | 447271 | ||
| MNMM4_TS_DEWT_092018.nc | 27-Oct-2024 14:54 | 447507 | ||
| MNMM4_TS_DEWT_092019.nc | 27-Oct-2024 14:54 | 438143 | ||
| MNMM4_TS_DEWT_092020.nc | 27-Oct-2024 14:54 | 447384 | ||
| MNMM4_TS_DEWT_092021.nc | 27-Oct-2024 14:54 | 447882 | ||
| MNMM4_TS_DEWT_092022.nc | 27-Oct-2024 14:54 | 448430 | ||
| MNMM4_TS_DEWT_092023.nc | 27-Oct-2024 14:54 | 450536 | ||
| MNMM4_TS_DEWT_092025.nc | 01-Oct-2025 07:58 | 449722 | ||
| MNMM4_TS_DEWT_102006.nc | 27-Oct-2024 14:54 | 450258 | ||
| MNMM4_TS_DEWT_102007.nc | 27-Oct-2024 14:54 | 449457 | ||
| MNMM4_TS_DEWT_102008.nc | 27-Oct-2024 14:55 | 449622 | ||
| MNMM4_TS_DEWT_102009.nc | 27-Oct-2024 14:55 | 449438 | ||
| MNMM4_TS_DEWT_102010.nc | 27-Oct-2024 14:55 | 449261 | ||
| MNMM4_TS_DEWT_102011.nc | 27-Oct-2024 14:55 | 450201 | ||
| MNMM4_TS_DEWT_102012.nc | 27-Oct-2024 14:55 | 433608 | ||
| MNMM4_TS_DEWT_102013.nc | 27-Oct-2024 14:55 | 448724 | ||
| MNMM4_TS_DEWT_102014.nc | 27-Oct-2024 14:55 | 449379 | ||
| MNMM4_TS_DEWT_102015.nc | 27-Oct-2024 14:55 | 449307 | ||
| MNMM4_TS_DEWT_102016.nc | 27-Oct-2024 14:55 | 450672 | ||
| MNMM4_TS_DEWT_102017.nc | 27-Oct-2024 14:55 | 450211 | ||
| MNMM4_TS_DEWT_102018.nc | 27-Oct-2024 14:55 | 449806 | ||
| MNMM4_TS_DEWT_102019.nc | 27-Oct-2024 14:55 | 448988 | ||
| MNMM4_TS_DEWT_102020.nc | 27-Oct-2024 14:55 | 448754 | ||
| MNMM4_TS_DEWT_102021.nc | 27-Oct-2024 14:55 | 437035 | ||
| MNMM4_TS_DEWT_102022.nc | 27-Oct-2024 14:56 | 448266 | ||
| MNMM4_TS_DEWT_102023.nc | 27-Oct-2024 14:56 | 448331 | ||
| MNMM4_TS_DEWT_102025.nc | 01-Nov-2025 07:08 | 441096 | ||
| MNMM4_TS_DEWT_112006.nc | 27-Oct-2024 14:56 | 449113 | ||
| MNMM4_TS_DEWT_112007.nc | 27-Oct-2024 14:56 | 442161 | ||
| MNMM4_TS_DEWT_112008.nc | 27-Oct-2024 14:56 | 450207 | ||
| MNMM4_TS_DEWT_112009.nc | 27-Oct-2024 14:56 | 450868 | ||
| MNMM4_TS_DEWT_112011.nc | 27-Oct-2024 14:56 | 449659 | ||
| MNMM4_TS_DEWT_112012.nc | 27-Oct-2024 14:56 | 450341 | ||
| MNMM4_TS_DEWT_112013.nc | 27-Oct-2024 14:56 | 448748 | ||
| MNMM4_TS_DEWT_112014.nc | 27-Oct-2024 14:56 | 449805 | ||
| MNMM4_TS_DEWT_112015.nc | 27-Oct-2024 14:56 | 449467 | ||
| MNMM4_TS_DEWT_112016.nc | 27-Oct-2024 14:56 | 451007 | ||
| MNMM4_TS_DEWT_112017.nc | 27-Oct-2024 14:56 | 451363 | ||
| MNMM4_TS_DEWT_112018.nc | 27-Oct-2024 14:56 | 449648 | ||
| MNMM4_TS_DEWT_112019.nc | 27-Oct-2024 14:57 | 450059 | ||
| MNMM4_TS_DEWT_112020.nc | 27-Oct-2024 14:57 | 451428 | ||
| MNMM4_TS_DEWT_112021.nc | 27-Oct-2024 14:57 | 451104 | ||
| MNMM4_TS_DEWT_112022.nc | 27-Oct-2024 14:57 | 450613 | ||
| MNMM4_TS_DEWT_112023.nc | 27-Oct-2024 14:57 | 449469 | ||
| MNMM4_TS_DEWT_112024.nc | 17-Jan-2025 18:59 | 448350 | ||
| MNMM4_TS_DEWT_112025.nc | 01-Dec-2025 10:56 | 450369 | ||
| MNMM4_TS_DEWT_122006.nc | 27-Oct-2024 14:57 | 449018 | ||
| MNMM4_TS_DEWT_122007.nc | 27-Oct-2024 14:57 | 449671 | ||
| MNMM4_TS_DEWT_122008.nc | 27-Oct-2024 14:57 | 448616 | ||
| MNMM4_TS_DEWT_122009.nc | 27-Oct-2024 14:57 | 448905 | ||
| MNMM4_TS_DEWT_122010.nc | 27-Oct-2024 14:57 | 451115 | ||
| MNMM4_TS_DEWT_122011.nc | 27-Oct-2024 14:57 | 450645 | ||
| MNMM4_TS_DEWT_122012.nc | 27-Oct-2024 14:57 | 449973 | ||
| MNMM4_TS_DEWT_122013.nc | 27-Oct-2024 14:57 | 450284 | ||
| MNMM4_TS_DEWT_122014.nc | 27-Oct-2024 14:57 | 450277 | ||
| MNMM4_TS_DEWT_122015.nc | 27-Oct-2024 14:57 | 448823 | ||
| MNMM4_TS_DEWT_122016.nc | 27-Oct-2024 14:57 | 449501 | ||
| MNMM4_TS_DEWT_122017.nc | 27-Oct-2024 14:58 | 449450 | ||
| MNMM4_TS_DEWT_122018.nc | 27-Oct-2024 14:58 | 448628 | ||
| MNMM4_TS_DEWT_122019.nc | 27-Oct-2024 14:58 | 448575 | ||
| MNMM4_TS_DEWT_122020.nc | 27-Oct-2024 14:58 | 448721 | ||
| MNMM4_TS_DEWT_122021.nc | 27-Oct-2024 14:58 | 449670 | ||
| MNMM4_TS_DEWT_122022.nc | 27-Oct-2024 14:58 | 448590 | ||
| MNMM4_TS_DEWT_122023.nc | 21-Dec-2024 04:20 | 439106 | ||
| MNMM4_TS_DEWT_122024.nc | 22-Jan-2025 19:16 | 451418 | ||
| MNMM4_TS_DEWT_122025.nc | 01-Jan-2026 05:25 | 450778 | ||